Location: Commenchon
(49.6411°N, 3.1571°E)
Time: 05:35:23
(UTC+00:00)

CZ-4B R/B - Pass Details

Date: 15 May 2026
Orbit: 700 x 797 km, 98.9° (Epoch: 6 June)

Event Time Altitude Azimuth Distance (km) Brightness Sun altitude
Exits shadow 21:23:16 20° 173° (S) 1,627 4.7 -14.6°
Maximum altitude 21:26:37 73° 256° (WSW) 748 3.5 -14.9°
Drops below altitude 10° 21:31:30 10° 342° (NNW) 2,228 7.2 -15.3°
Sets 21:33:49 0° 344° (NNW) 3,168 8.2 -15.5°
